User: anonymous   Login
Location: Caltech
(34.1382°N, 118.1253°W)
Time: 08:54:41
(UTC-07:00)
Language:

Cosmos 44 Rocket - Orbit

View from above orbital plane
View from above orbital plane
View from above satellite
View from above satellite

Ground track
Ground track

The orbit data is extracted from the following two-line orbital elements,

1   877U 64053B   16210.84889153  .00000066  00000-0  13308-4 0  9997
2   877  65.0779 157.0665 0081608 244.0545 115.2614 14.59249189754339
Epoch (UTC): 28 July 2016 20:22:24
Eccentricity: 0.0081608
inclination: 65.0779°
perigee height: 638 km
apogee height: 753 km
right ascension of ascending node: 157.0665°
argument of perigee: 244.0545°
revolutions per day: 14.59249189
mean anomaly at epoch: 115.2614°
orbit number at epoch: 75433

The dashed part of the orbit path shows where the satellite is in the earth's shadow,  

DLR